When you browse on this site, cookies collect data to enhance your experience and personalize the content and advertising you see.
Visit our Privacy Policy to learn more. By continuing to use the site, you agree to this use of cookies and data.
  • In Deutschland
  • Länderverzeichnis
  • Für 7 Tage
  • Wassertemperatur
  • Satellitenkarten
  • Wetterkarte
  • Widgets
  • user-avatar
    Anmelden

    Stündliche Wetter Barreiras

    Heute, 24 Mai, Freitag

    Zeit Temperatur Niederschläge Wind Luftdruck Luftfeuchtigkeit
    00:00 +26°C° 0 mm 0 m/S 719 mmHg 67%
    01:00 +25°C° 0.2 mm 0 m/S 719 mmHg 70%
    02:00 +24°C° 0.2 mm 0 m/S 719 mmHg 74%
    03:00 +24°C° 0.2 mm 0 m/S 719 mmHg 77%
    04:00 +23°C° 0.1 mm 0 m/S 720 mmHg 79%
    05:00 +25°C° 0.1 mm 1 m/S 720 mmHg 82%
    06:00 +24°C° 0.1 mm 1 m/S 720 mmHg 84%
    07:00 +26°C° 0.1 mm 1 m/S 721 mmHg 78%
    08:00 +28°C° 0.1 mm 2 m/S 721 mmHg 72%
    09:00 +29°C° 0.1 mm 3 m/S 722 mmHg 67%
    10:00 +30°C° 0.5 mm 3 m/S 721 mmHg 61%
    11:00 +32°C° 0.5 mm 2 m/S 721 mmHg 56%
    12:00 +34°C° 0.5 mm 2 m/S 721 mmHg 51%
    13:00 +35°C° 0.2 mm 2 m/S 720 mmHg 49%
    14:00 +35°C° 0.2 mm 2 m/S 720 mmHg 47%
    15:00 +35°C° 0.2 mm 2 m/S 719 mmHg 45%
    16:00 +33°C° 0 mm 1 m/S 719 mmHg 51%
    17:00 +31°C° 0 mm 1 m/S 719 mmHg 56%
    18:00 +29°C° 0 mm 1 m/S 719 mmHg 62%
    19:00 +28°C° 0 mm 1 m/S 719 mmHg 66%
    20:00 +25°C° 0 mm 0 m/S 720 mmHg 70%
    21:00 +24°C° 0 mm 0 m/S 720 mmHg 73%
    22:00 +24°C° 0.1 mm 0 m/S 720 mmHg 76%
    23:00 +23°C° 0.1 mm 0 m/S 720 mmHg 78%

    Morgen, 25 Mai, Samstag

    Zeit Temperatur Niederschläge Wind Luftdruck Luftfeuchtigkeit
    00:00 +25°C° 0.1 mm 1 m/S 720 mmHg 80%
    01:00 +25°C° 0.1 mm 1 m/S 720 mmHg 81%
    02:00 +25°C° 0.1 mm 1 m/S 720 mmHg 82%
    03:00 +22°C° 0.1 mm 0 m/S 719 mmHg 84%
    04:00 +24°C° 0.1 mm 1 m/S 720 mmHg 84%
    05:00 +24°C° 0.1 mm 1 m/S 720 mmHg 85%
    06:00 +24°C° 0.1 mm 1 m/S 720 mmHg 86%
    07:00 +26°C° 0 mm 1 m/S 720 mmHg 78%
    08:00 +28°C° 0 mm 1 m/S 721 mmHg 71%
    09:00 +30°C° 0 mm 2 m/S 722 mmHg 63%
    10:00 +31°C° 0 mm 2 m/S 721 mmHg 57%
    11:00 +32°C° 0 mm 2 m/S 721 mmHg 51%
    12:00 +35°C° 0 mm 2 m/S 721 mmHg 46%
    13:00 +35°C° 0 mm 2 m/S 720 mmHg 45%
    14:00 +34°C° 0 mm 1 m/S 719 mmHg 44%
    15:00 +34°C° 0 mm 1 m/S 719 mmHg 43%
    16:00 +33°C° 0 mm 1 m/S 719 mmHg 47%
    17:00 +31°C° 0 mm 1 m/S 719 mmHg 51%
    18:00 +30°C° 0 mm 1 m/S 719 mmHg 55%
    19:00 +27°C° 0 mm 0 m/S 719 mmHg 57%
    20:00 +26°C° 0 mm 0 m/S 720 mmHg 59%
    21:00 +26°C° 0 mm 0 m/S 720 mmHg 61%
    22:00 +25°C° 0 mm 0 m/S 720 mmHg 64%
    23:00 +24°C° 0 mm 0 m/S 720 mmHg 66%

    übermorgen, 26 Mai, Sonntag

    Zeit Temperatur Niederschläge Wind Luftdruck Luftfeuchtigkeit
    00:00 +24°C° 0 mm 0 m/S 720 mmHg 69%
    01:00 +23°C° 0 mm 0 m/S 720 mmHg 71%
    02:00 +23°C° 0 mm 0 m/S 719 mmHg 72%
    03:00 +22°C° 0 mm 0 m/S 719 mmHg 74%
    04:00 +22°C° 0 mm 0 m/S 719 mmHg 76%
    05:00 +22°C° 0 mm 0 m/S 719 mmHg 78%
    06:00 +21°C° 0 mm 0 m/S 719 mmHg 80%
    07:00 +23°C° 0 mm 0 m/S 720 mmHg 73%
    08:00 +25°C° 0 mm 0 m/S 721 mmHg 67%
    09:00 +27°C° 0 mm 0 m/S 722 mmHg 60%
    10:00 +31°C° 0 mm 1 m/S 721 mmHg 54%
    11:00 +33°C° 0 mm 1 m/S 721 mmHg 48%
    12:00 +35°C° 0 mm 1 m/S 721 mmHg 42%
    13:00 +34°C° 0 mm 1 m/S 720 mmHg 45%
    14:00 +33°C° 0 mm 1 m/S 719 mmHg 49%
    15:00 +32°C° 0 mm 1 m/S 719 mmHg 52%
    16:00 +31°C° 0 mm 1 m/S 719 mmHg 54%
    17:00 +28°C° 0 mm 0 m/S 719 mmHg 56%
    18:00 +27°C° 0 mm 0 m/S 719 mmHg 58%
    19:00 +26°C° 0 mm 0 m/S 719 mmHg 61%
    20:00 +25°C° 0 mm 0 m/S 719 mmHg 64%
    21:00 +24°C° 0 mm 0 m/S 720 mmHg 66%
    22:00 +24°C° 0 mm 0 m/S 720 mmHg 68%
    23:00 +23°C° 0 mm 0 m/S 720 mmHg 70%

    27 Mai, Montag

    Zeit Temperatur Niederschläge Wind Luftdruck Luftfeuchtigkeit
    00:00 +23°C° 0 mm 0 m/S 720 mmHg 71%
    01:00 +24°C° 0 mm 1 m/S 719 mmHg 73%
    02:00 +24°C° 0 mm 1 m/S 719 mmHg 74%
    03:00 +23°C° 0 mm 1 m/S 719 mmHg 75%
    04:00 +23°C° 0 mm 1 m/S 719 mmHg 74%
    05:00 +22°C° 0 mm 1 m/S 719 mmHg 73%
    06:00 +22°C° 0 mm 1 m/S 720 mmHg 72%
    07:00 +24°C° 0 mm 1 m/S 721 mmHg 66%
    08:00 +26°C° 0 mm 2 m/S 721 mmHg 60%
    09:00 +28°C° 0 mm 2 m/S 722 mmHg 54%
    10:00 +30°C° 0 mm 2 m/S 722 mmHg 50%
    11:00 +31°C° 0 mm 2 m/S 721 mmHg 45%
    12:00 +34°C° 0 mm 3 m/S 721 mmHg 41%
    13:00 +34°C° 0 mm 3 m/S 720 mmHg 40%
    14:00 +34°C° 0 mm 3 m/S 720 mmHg 40%
    15:00 +35°C° 0 mm 2 m/S 719 mmHg 39%
    16:00 +32°C° 0 mm 2 m/S 719 mmHg 45%
    17:00 +30°C° 0 mm 2 m/S 719 mmHg 51%
    18:00 +28°C° 0 mm 1 m/S 719 mmHg 57%
    19:00 +27°C° 0 mm 1 m/S 719 mmHg 61%
    20:00 +26°C° 0 mm 1 m/S 720 mmHg 65%
    21:00 +25°C° 0 mm 1 m/S 720 mmHg 69%
    22:00 +24°C° 0 mm 1 m/S 720 mmHg 69%
    23:00 +24°C° 0 mm 1 m/S 720 mmHg 70%

    28 Mai, Dienstag

    Zeit Temperatur Niederschläge Wind Luftdruck Luftfeuchtigkeit
    00:00 +23°C° 0 mm 1 m/S 720 mmHg 70%
    01:00 +23°C° 0 mm 1 m/S 719 mmHg 72%
    02:00 +22°C° 0 mm 1 m/S 719 mmHg 74%
    03:00 +22°C° 0 mm 1 m/S 719 mmHg 76%
    04:00 +22°C° 0 mm 1 m/S 719 mmHg 80%
    05:00 +21°C° 0 mm 1 m/S 720 mmHg 84%
    06:00 +21°C° 0 mm 1 m/S 720 mmHg 87%
    07:00 +23°C° 0 mm 1 m/S 721 mmHg 79%
    08:00 +26°C° 0 mm 2 m/S 721 mmHg 70%
    09:00 +28°C° 0 mm 2 m/S 722 mmHg 62%
    10:00 +30°C° 0 mm 2 m/S 722 mmHg 55%
    11:00 +31°C° 0 mm 2 m/S 721 mmHg 49%
    12:00 +34°C° 0 mm 3 m/S 721 mmHg 43%
    13:00 +34°C° 0 mm 2 m/S 720 mmHg 42%
    14:00 +34°C° 0 mm 2 m/S 720 mmHg 42%
    15:00 +34°C° 0 mm 2 m/S 719 mmHg 42%
    16:00 +32°C° 0 mm 1 m/S 719 mmHg 46%
    17:00 +30°C° 0 mm 1 m/S 719 mmHg 50%
    18:00 +29°C° 0 mm 1 m/S 719 mmHg 55%
    19:00 +28°C° 0 mm 1 m/S 720 mmHg 57%
    20:00 +27°C° 0 mm 1 m/S 720 mmHg 60%
    21:00 +26°C° 0 mm 1 m/S 720 mmHg 63%
    22:00 +25°C° 0 mm 1 m/S 720 mmHg 64%
    23:00 +25°C° 0 mm 1 m/S 720 mmHg 64%

    29 Mai, Mittwoch

    Zeit Temperatur Niederschläge Wind Luftdruck Luftfeuchtigkeit
    00:00 +25°C° 0 mm 1 m/S 720 mmHg 65%
    01:00 +24°C° 0 mm 1 m/S 720 mmHg 67%
    02:00 +24°C° 0 mm 1 m/S 719 mmHg 69%
    03:00 +23°C° 0 mm 1 m/S 719 mmHg 71%
    04:00 +23°C° 0 mm 1 m/S 719 mmHg 74%
    05:00 +23°C° 0 mm 1 m/S 720 mmHg 77%
    06:00 +22°C° 0 mm 1 m/S 720 mmHg 81%
    07:00 +25°C° 0 mm 1 m/S 720 mmHg 74%
    08:00 +27°C° 0 mm 2 m/S 721 mmHg 67%
    09:00 +29°C° 0 mm 2 m/S 721 mmHg 60%
    10:00 +31°C° 0 mm 2 m/S 721 mmHg 55%
    11:00 +32°C° 0 mm 2 m/S 721 mmHg 50%
    12:00 +35°C° 0 mm 3 m/S 720 mmHg 44%
    13:00 +34°C° 0 mm 2 m/S 720 mmHg 46%
    14:00 +34°C° 0 mm 2 m/S 719 mmHg 48%
    15:00 +34°C° 0 mm 2 m/S 718 mmHg 49%
    16:00 +31°C° 0 mm 1 m/S 718 mmHg 54%
    17:00 +30°C° 0 mm 1 m/S 719 mmHg 59%
    18:00 +28°C° 0 mm 1 m/S 719 mmHg 64%
    19:00 +28°C° 0 mm 1 m/S 719 mmHg 67%
    20:00 +27°C° 0 mm 1 m/S 719 mmHg 69%
    21:00 +26°C° 0 mm 1 m/S 719 mmHg 72%
    22:00 +26°C° 0 mm 1 m/S 719 mmHg 72%
    23:00 +26°C° 0 mm 1 m/S 719 mmHg 72%
    Mehr zeigen